Regional Weather Roundup
Issued by NWS Bismarck, ND

Home | Current Version | Previous Version | Text Only | Print | Product List | Glossary On
Versions: 1 2 3 4 5 6 7 8 9 10 11 12 13 14 15 16 17 18 19 20 21 22 23 24 25 26 27 28 29 30 31 32 33 34 35 36 37 38 39 40 41 42 43 44 45 46 47 48 49 50
000
ASUS43 KBIS 211110
RWRBIS

NWR BROADCAST TEXT
NATIONAL WEATHER SERVICE BISMARCK ND
600 AM CDT TUE OCT 21 2014

NOTE: "FAIR" INDICATES FEW OR NO CLOUDS BELOW 12,000 FEET WITH NO
SIGNIFICANT WEATHER AND/OR OBSTRUCTIONS TO VISIBILITY.


CITY           SKY/WX    TMP DP  RH WIND       PRES   REMARKS
WILLISTON      CLEAR     39  36  89 NE3       29.76F
MINOT          CLEAR     46  34  62 E8        29.83F
MINOT AFB      CLEAR     39  37  91 SE12      29.83F
BISMARCK       CLEAR     53  36  52 SE13      29.86F
DICKINSON      CLEAR     40  34  79 SE12      29.78S
GARRISON         N/A     49  36  61 SE7       29.83F
HETTINGER ARPT CLEAR     40  35  83 E5        29.81S
JAMESTOWN      CLEAR     47  38  71 SE15      29.96S
BEACH            N/A     41  39  93 S6        29.78S
CARRINGTON     FAIR      45  41  87 SE17G23   29.94S FOG
CROSBY         FAIR      46  39  76 S12       29.77R
HARVEY         FAIR      43  39  87 SE10      29.89F
HAZEN          FAIR      45  34  65 E6        29.83F
LINTON         FAIR      52  36  54 SE22G30   29.85S
MANDAN         FAIR      52  36  54 SE9       29.86S
OAKES            N/A     41  41 100 E12       29.99S
RUGBY          FAIR      46  39  76 SE15      29.89S
STANLEY        FAIR      39  37  93 SE7       29.81F
TIOGA          FAIR      43  37  81 SE7       29.82F
$$

CITY           SKY/WX    TMP DP  RH WIND       PRES   REMARKS
GRAND FORKS    CLEAR     39  37  92 S10       30.04R
GRAND FORKS AF CLEAR     37  37  99 S8        30.03S
DEVILS LAKE    CLEAR     46  36  66 SE16      29.94S
FARGO          CLEAR     43  38  82 SE14      30.05S
CANDO          FAIR      45  39  81 SE14      29.93F
CAVALIER       FAIR      37  36  93 SE8       30.02S
GRAFTON        FAIR      36  36 100 SE9       30.03S
GWINNER        SUNNY     43  37  81 SE8       30.03S
LANGDON        FAIR      39  36  87 S13       29.97S
ROLLA          FAIR      39  39 100 S7        29.94S
WALHALLA       FAIR      37  37 100 S9        30.01R
$$

CITY           SKY/WX    TMP DP  RH WIND       PRES   REMARKS
ABERDEEN       CLEAR     48  39  71 SE9       29.97F
MOBRIDGE       CLEAR     54  41  61 SE12      29.84S
BUFFALO          N/A     49  40  71 S6        29.73F
RAPID CITY     CLEAR     49  39  68 SE3       29.84F
GLASGOW        CLEAR     46  36  68 E13       29.68F
SIDNEY         CLEAR     37  34  87 NW5       29.76F
WOLF POINT     CLEAR     37  33  85 E7        29.72F
GLENDIVE       CLEAR     41  37  87 NW3       29.76S
MILES CITY     CLEAR     45  37  73 NE6       29.73F
BAKER          CLEAR     41  38  89 E6        29.77F
$$

CITY           SKY/WX    TMP DP  RH WIND       PRES   REMARKS
BILLINGS       CLEAR     55  28  35 SW15      29.75F
GREAT FALLS    CLEAR     55  34  45 S5        29.67S
REGINA         CLEAR     45  41  87 SE14      29.71S
ESTEVAN        CLEAR     39  36  87 E10       29.77F
$$




USA.gov is the U.S. government's official web portal to all federal, state and local government web resources and services.